Regional Weather Roundup
Issued by NWS Midland/Odessa, TX

Skip options and go directly to product.
Home | Oldest Version | Previous Version | Current Version | All | Graphics & Text | Save Text | Print | Product List | Glossary On

Skip product version selection by date and time.   
240
ASUS44 KMAF 182310
RWRMAF
MIDLAND AREA WEATHER ROUNDUP
NATIONAL WEATHER SERVICE MIDLAND TX
500 PM CST THU DEC 18 2014

...IN SOUTHWEST TEXAS AND SOUTHEAST NEW MEXICO...

CITY           SKY/WX    TMP DP  RH WIND       PRES   REMARKS
ALPINE         MOCLDY    57  30  34 S8        30.10S
ANDREWS        FAIR      60  33  36 CALM      30.03F
ARTESIA        CLOUDY    57  32  38 S7        30.03S
BIG SPRING     MOCLDY    64  33  31 S3        30.06S
CARLSBAD       CLOUDY    60  34  37 SE6       30.01S
DRYDEN         NOT AVBL
FORT STOCKTON  PTCLDY    62  32  32 E7        30.02F
GUAD PASS      NOT AVBL
HOBBS          CLEAR     57  32  38 CALM      30.04F
MARFA          CLOUDY    55  28  35 SE6       30.08R
MIDLAND AIRPK  MOCLDY    62  36  37 E3        30.04S
MIDLAND INTL   MOCLDY    62  35  36 E6        30.02F
ODESSA         CLOUDY    62  31  31 MISG      30.02F
PECOS          MOCLDY    63  32  30 W6        30.01S
PRESIDIO       FAIR      63  31  30 CALM      30.00F
SEMINOLE       MOCLDY    59  30  33 CALM      30.05S
SNYDER         MOCLDY    59  32  36 NE7       30.06S
WINK           CLOUDY    63  29  27 CALM      30.00F
$$
...OTHER STATIONS IN TEXAS...

CITY           SKY/WX    TMP DP  RH WIND       PRES   REMARKS
ABILENE        MOCLDY    56  40  55 N13       30.07S
AMARILLO       MOCLDY    41  30  65 NE3       30.10R
AUSTIN         CLOUDY    58  54  86 NE10      30.05S
BROWNSVILLE    CLOUDY    74  68  81 S13       29.96R
CORPUS CHRISTI CLOUDY    73  68  84 SE15      29.97R
DALLAS FTW     CLOUDY    48  44  86 N7        30.12R
DEL RIO        MOCLDY    66  54  65 CALM      29.98F
EL PASO        CLOUDY    54  36  50 SE7       30.04F
HOUSTON INT    CLOUDY    66  61  84 NE13      30.03S
LUBBOCK        PTCLDY    52  31  44 E7        30.04S
SAN ANGELO     CLOUDY    64  36  35 NE8       30.02F
SAN ANTONIO    CLOUDY    64  59  83 NE8       30.02S
WACO           CLOUDY    51  47  86 NE9       30.09S
WICHITA FALLS  NOT AVBL
$$
...OTHER LOCATIONS IN NEW MEXICO...

CITY           SKY/WX    TMP DP  RH WIND       PRES   REMARKS
ALAMAGORDO     CLOUDY    52  32  46 SW7       30.05S
ALBUQUERQUE    CLOUDY    44  26  49 N8        30.09R WCI  39
CANNON AFB     CLOUDY    53  20  27 W12       30.03R
CLOVIS         CLOUDY    54  21  28 SW13      30.03S
HOLLOMAN AFB   CLOUDY    53  31  42 S8        30.03S
ROSWELL        CLOUDY    54  30  40 E5        30.03S
RUIDOSO        CLOUDY    39  27  60 SW16      30.07S WCI  30
SANTA FE       CLOUDY    37  23  56 NW3       30.07S
TRUTH OR CONSE CLOUDY    47  36  65 SE5       30.04S
TUCUMCARI      MOCLDY    45  31  58 NE7       30.03S
$$

USA.gov is the U.S. government's official web portal to all federal, state and local government web resources and services.